Overview Statistics Trail Chart Weather Telemetry Raw packets
 

This is the latest recevied weather packets stored in our database for station/object DN9EM-3. If no packets are shown the sender has not sent any weather packets the latest 10 day(s).

<< 1 2 3 4 5 6 >>
Time Temp. Humidity Pressure Rain* Wind** Luminosity Snow
1788546643 16.11° C 84% 1009 hPa 0.25 mm - - -
1788546040 16.11° C 85% 1008.9 hPa 0.25 mm - - -
1788545438 16.67° C 87% 1008.9 hPa 0.25 mm - - -
1788544835 17.22° C 84% 1008.6 hPa 0.25 mm - - -
1788544232 17.22° C 83% 1008.3 hPa 0 mm - - -
1788543630 17.22° C 84% 1008.2 hPa 0 mm - - -
1788543027 17.78° C 82% 1008 hPa 0 mm - - -
1788542425 17.22° C 83% 1007.9 hPa 0 mm - - -
1788541822 17.22° C 84% 1007.7 hPa 0 mm - - -
1788541219 17.78° C 84% 1007.6 hPa 0 mm - - -
1788540617 17.78° C 86% 1007.6 hPa 0 mm - - -
1788540075 17.78° C 86% 1007.4 hPa 0 mm - - -
1788539472 17.78° C 87% 1007.4 hPa 0 mm - - -
1788538869 17.22° C 87% 1007.2 hPa 0 mm - - -
1788538267 17.78° C 88% 1006.9 hPa 0 mm - - -
1788537664 17.78° C 88% 1007 hPa 0 mm - - -
1788537061 17.78° C 88% 1006.8 hPa 0 mm - - -
1788536459 17.78° C 88% 1006.4 hPa 0 mm - - -
1788535856 17.78° C 88% 1006.5 hPa 0 mm - - -
1788535254 17.78° C 88% 1006.3 hPa 0.25 mm - - -
1788534651 17.78° C 89% 1006.2 hPa 1.78 mm - - -
1788534049 17.78° C 91% 1006.2 hPa 1.78 mm - - -
1788533446 17.78° C 92% 1006 hPa 2.03 mm - - -
1788532843 17.78° C 92% 1005.7 hPa 2.03 mm - - -
1788532241 17.78° C 92% 1005.7 hPa 2.03 mm - - -

* Rain latest hour (hover to see other rain measurements)
** Current wind speed in m/s (hover to see current wind gust speed)